Temperature
24 24 23 23 22 22 21 21 21 20 20 20 19 19 19 19 19 18 18 18 18 18 18 18 18 18 18 18 18 18 18 18 18 17 17 17 17 17 17 17 17 17 17
24 24 23 23 23 22 22 21 21 21 20 20 20 19 19 19 19 19 18 18 18 18 18 18 18 18 18 18 18 18 18 18 17 17 17 17 17 17 17 17 17 17 17
24 24 23 23 23 23 22 22 21 21 20 20 20 19 19 19 19 19 19 19 18 18 18 18 18 18 18 18 18 18 18 18 17 17 17 17 17 17 17 17 17 17 17
24 24 24 23 23 23 23 22 22 21 20 20 20 19 19 19 19 19 19 19 18 18 18 18 18 18 18 18 18 18 18 18 17 17 17 17 17 17 16 17 17 17 17
24 24 24 24 24 23 23 22 22 21 21 20 20 20 19 19 19 19 19 19 18 18 18 18 18 18 18 18 18 18 18 17 17 17 17 17 17 17 16 16 16 17 17
24 24 24 24 24 23 23 22 22 21 21 20 20 20 20 20 19 19 19 19 18 18 18 18 18 18 18 18 18 18 17 17 17 17 17 17 17 17 16 16 16 16 16
24 24 24 24 23 23 23 22 22 21 21 20 20 20 20 20 19 19 19 19 19 19 18 18 18 18 18 18 18 18 18 17 17 17 17 17 17 16 16 16 16 16 16
24 24 24 24 23 23 23 22 22 22 21 21 20 20 20 20 19 19 19 19 19 19 19 18 18 18 18 18 18 18 17 17 17 17 17 17 17 16 16 16 16 16 15
24 24 24 24 23 23 23 22 22 22 21 21 21 20 20 20 19 19 19 19 19 19 19 18 18 18 18 18 18 18 17 17 17 17 17 17 17 16 16 16 16 16 15
24 23 23 23 23 23 23 22 22 22 21 21 21 20 20 20 20 19 19 19 19 19 19 18 18 18 18 18 18 17 17 17 17 17 17 17 16 16 16 16 16 16 15
23 23 23 23 23 23 22 22 22 21 21 21 21 20 20 20 20 19 19 19 19 19 18 18 18 18 18 18 18 17 17 17 17 17 16 16 16 16 16 16 16 15 15
23 23 24 23 22 22 22 22 22 21 21 21 20 20 20 20 19 19 19 19 19 18 18 18 18 18 18 18 17 17 17 17 17 17 16 16 16 16 16 16 15 15 15
23 23 23 22 22 22 21 21 21 21 21 21 20 20 20 19 19 19 19 19 19 18 18 18 18 18 18 17 17 17 17 17 17 17 16 16 16 16 16 16 15 15 15
22 22 22 22 22 21 21 21 21 20 20 20 20 20 20 19 19 19 19 18 18 18 18 18 18 18 18 17 17 17 17 17 17 16 16 16 16 16 16 15 15 15 14
21 21 21 21 21 21 21 20 20 20 20 20 20 20 20 19 19 18 18 18 18 18 18 18 17 17 17 17 17 17 17 16 16 16 16 16 16 16 15 15 15 14 14
20 20 21 21 21 21 21 20 20 20 20 20 20 19 19 19 18 18 18 18 18 18 18 17 17 17 17 17 17 16 16 16 16 16 16 16 15 15 15 15 15 14 14
20 20 20 21 21 20 20 20 20 20 20 19 19 19 18 18 18 18 18 17 17 18 17 17 17 17 17 17 16 16 16 16 16 16 15 15 15 15 15 14 14 14 14
20 20 20 20 21 20 20 20 19 19 19 19 19 19 18 18 18 18 17 17 17 17 17 17 17 17 17 16 16 16 16 15 15 15 15 15 15 15 14 14 14 14 13
20 20 20 20 20 20 20 19 19 19 19 18 18 18 18 18 18 18 17 17 17 17 17 16 16 16 16 16 16 15 15 15 15 15 14 14 14 14 14 14 13 13 13
20 20 20 20 20 20 19 19 19 18 18 18 18 18 18 18 18 18 17 17 17 17 16 16 16 16 16 16 15 15 15 15 15 14 14 14 14 14 14 13 13 13 13
19 19 19 19 19 19 19 19 18 18 18 18 18 18 18 17 17 17 17 17 17 16 16 16 16 16 15 15 15 15 15 15 14 14 14 14 14 13 13 13 13 13 13
18 19 18 18 18 18 18 18 18 18 18 18 18 17 17 17 17 17 16 16 16 16 16 15 15 15 15 15 14 14 14 14 14 14 14 14 13 13 13 13 13 12 12
18 18 17 17 17 17 17 17 17 17 17 17 17 17 17 17 16 16 16 16 16 15 15 15 15 15 15 15 14 14 14 14 13 13 13 13 13 13 12 12 12 12 12
17 17 17 17 17 16 16 16 17 17 16 16 16 16 16 16 16 16 15 15 15 15 15 15 14 14 14 14 14 14 14 13 13 13 13 12 12 12 12 12 12 11 11
16 16 16 16 16 16 16 16 16 16 16 16 16 15 15 15 15 15 15 15 15 15 15 14 14 14 14 14 13 13 13 13 13 12 12 12 12 11 11 11 11 11 11
15 15 15 15 15 15 15 15 15 15 15 15 15 15 15 15 14 14 14 14 14 14 14 14 14 14 13 13 13 13 13 13 12 12 12 12 11 11 11 11 11 10 10
Wind_Speed
12 12 13 13 12 10 10 10 9 8 6 4 4 4 3 3 3 3 6 7 8 7 5 3 2 3 2 2 2 2 2 1 1 2 1 2 1 0 1 1 2 3 6
10 12 12 12 13 12 11 10 10 9 8 6 4 3 3 3 3 2 4 6 7 7 6 4 3 3 3 2 2 2 2 1 2 2 2 1 3 2 1 0 1 1 2
15 14 14 13 13 13 13 12 10 9 9 7 4 3 2 1 1 1 2 4 6 7 6 6 4 4 4 3 3 3 4 2 1 2 3 2 2 2 2 1 0 0 1
13 13 14 14 15 14 13 11 10 10 9 8 7 6 5 4 5 3 3 3 5 5 6 6 5 4 4 4 4 3 3 4 2 1 1 2 3 2 1 2 2 1 1
13 14 15 15 14 14 12 11 10 9 9 9 9 7 5 4 3 3 3 3 3 4 5 5 4 4 4 4 3 3 3 3 3 2 1 1 1 2 2 1 2 2 2
11 12 13 11 11 11 11 10 10 9 9 9 9 8 8 6 5 4 4 3 2 2 4 4 4 4 4 4 4 4 4 3 3 2 2 2 2 2 2 2 2 2 2
9 10 11 12 11 12 11 10 10 9 8 9 8 8 9 8 8 6 6 5 3 3 4 4 4 4 4 4 4 4 4 4 3 3 2 2 2 2 3 2 2 2 1
9 10 11 11 11 11 11 10 10 9 8 8 7 7 7 6 5 6 5 5 5 5 5 5 5 5 5 5 4 3 4 3 3 3 3 2 2 2 3 3 3 1 1
9 9 10 10 9 10 10 11 11 9 9 8 7 6 6 6 6 6 6 5 4 4 5 5 5 5 5 5 4 3 4 3 3 3 2 2 2 1 2 2 3 3 2
8 8 8 8 8 8 8 8 9 10 9 8 8 7 6 6 6 5 6 5 5 5 5 5 5 5 5 5 5 4 3 3 3 3 2 2 1 1 1 2 2 2 3
9 9 8 8 7 7 9 9 8 8 7 8 7 7 6 6 6 5 6 6 5 5 5 5 5 5 5 4 4 4 4 4 3 3 3 3 2 1 1 1 1 2 2
8 9 9 9 7 7 7 8 8 7 7 7 6 6 6 6 6 6 6 5 5 5 5 5 5 5 5 4 5 5 4 4 4 3 3 2 2 1 1 1 1 2 2
7 6 7 8 8 7 5 6 7 7 5 5 5 5 5 6 7 7 6 5 5 5 5 5 5 5 4 4 4 4 4 4 4 3 3 3 2 2 2 1 1 2 1
7 7 6 5 5 5 5 4 5 6 6 6 6 6 6 6 6 6 6 5 5 4 5 5 5 5 5 4 4 4 3 3 3 3 3 3 3 3 3 2 2 2 1
7 7 6 5 4 4 4 4 5 5 6 6 6 7 6 5 5 5 5 5 5 5 5 5 5 4 4 4 5 4 4 3 2 2 3 3 3 4 3 3 3 2 2
7 7 6 5 4 4 4 4 4 5 5 6 6 5 5 5 6 5 5 5 5 5 5 5 5 5 4 6 7 6 4 4 4 3 3 2 2 2 3 4 4 5 4
7 6 5 5 5 4 5 5 4 4 5 5 5 6 6 6 6 6 6 7 6 5 4 4 5 5 5 6 7 6 5 4 4 4 3 2 1 2 2 3 3 3 5
6 5 4 4 3 3 3 3 3 4 5 4 5 5 6 6 5 6 7 7 6 6 5 5 5 4 4 6 7 7 5 4 4 4 4 3 2 2 3 2 2 2 3
5 4 4 4 3 3 3 3 3 3 3 4 4 5 6 7 7 8 8 6 6 6 5 5 6 5 4 5 6 6 3 2 3 3 3 3 3 3 4 3 3 2 3
3 3 3 2 2 2 3 3 3 3 4 5 5 5 5 6 7 7 7 6 6 6 5 4 5 6 5 5 7 7 4 3 2 2 2 3 3 3 5 4 4 3 3
3 3 3 2 2 2 3 3 3 4 5 4 4 4 5 5 6 5 5 4 5 5 5 5 4 5 5 5 7 8 5 5 3 3 3 3 3 3 4 4 3 4 3
3 3 3 1 0 1 2 2 3 4 3 3 3 4 4 4 3 4 4 4 5 5 5 4 3 2 3 4 5 6 7 6 5 4 4 3 4 3 3 3 2 2 2
1 2 3 2 2 2 0 2 3 2 2 2 3 3 3 2 3 4 5 5 5 5 4 4 4 3 2 3 5 5 6 6 4 3 4 4 4 3 2 2 2 2 1
1 1 2 2 2 3 2 1 2 2 2 2 3 3 3 3 2 3 4 4 5 5 4 4 4 3 3 3 3 3 3 4 3 2 2 3 2 1 0 0 0 1 2
1 1 1 1 1 2 2 3 2 1 1 2 3 3 3 3 3 2 1 3 4 6 6 5 5 5 5 5 7 6 5 4 4 3 2 1 1 1 0 0 1 0 0
1 1 0 1 2 2 3 3 2 1 1 1 2 3 3 3 4 4 2 3 1 3 4 6 6 4 5 7 7 8 7 7 8 5 3 3 3 3 3 2 2 1 2
Wind_Direction
182 174 173 171 167 167 168 168 166 171 162 156 154 158 176 186 185 191 187 183 182 176 168 165 165 163 160 174 174 159 152 156 131 95 17 352 353 275 231 201 187 197 206
179 176 174 172 172 174 176 174 173 175 173 173 169 166 166 179 185 190 184 186 182 180 177 168 172 173 166 173 174 151 144 169 147 134 112 3 347 340 289 226 186 210 204
182 180 178 177 176 179 181 183 181 179 179 171 153 141 109 89 131 197 199 200 187 184 182 177 172 178 174 184 195 176 160 176 202 147 145 157 221 289 320 317 310 177 199
181 182 183 180 183 186 183 180 179 180 181 171 165 166 173 186 203 196 195 202 189 187 187 181 179 179 176 180 192 176 165 157 183 209 187 171 165 164 293 325 325 309 248
184 184 188 187 186 185 182 181 177 180 181 177 176 175 181 191 192 180 182 199 205 202 192 181 177 176 175 175 174 159 154 159 169 178 181 168 153 143 169 254 307 327 297
188 188 186 180 181 179 178 176 175 180 180 178 176 177 180 183 178 182 185 198 206 214 210 186 177 179 179 178 178 170 167 175 173 174 169 168 174 185 174 210 247 267 287
178 177 175 172 174 174 174 175 173 178 179 179 182 183 185 182 185 187 190 191 196 209 213 197 187 187 188 185 179 174 182 182 178 183 188 192 200 180 172 178 213 235 263
175 180 174 170 170 171 171 172 174 177 177 180 187 188 186 184 190 191 189 195 202 209 204 194 193 192 188 189 186 185 195 185 187 191 188 195 210 186 179 178 178 206 280
168 175 167 161 163 167 172 174 173 175 179 182 184 188 189 189 192 194 189 193 200 205 200 193 191 195 193 192 184 191 194 181 186 187 180 189 214 202 197 177 170 173 210
151 156 161 162 160 164 170 171 175 181 184 184 188 193 193 192 192 191 196 198 204 204 193 197 194 195 195 196 186 190 187 170 183 176 167 192 208 212 215 199 194 180 185
149 151 158 160 159 165 170 173 176 178 182 187 192 195 197 198 194 196 203 204 205 196 192 195 191 189 191 189 181 188 176 177 187 188 181 201 192 197 224 203 189 192 182
146 152 154 152 155 163 171 174 177 179 184 187 189 196 199 197 197 203 204 198 200 198 192 187 185 188 186 180 177 185 182 177 184 190 181 208 193 202 229 209 210 209 200
128 133 139 152 161 162 166 177 181 183 181 178 182 191 199 200 201 202 198 194 197 199 192 179 176 177 175 175 178 175 176 179 185 186 184 201 179 215 237 215 217 227 219
129 129 136 146 154 161 167 185 185 183 181 182 188 197 207 209 203 194 188 191 194 195 192 180 174 172 168 166 167 164 174 181 185 186 193 200 196 206 216 217 221 214 216
126 130 133 137 137 148 162 179 192 190 186 186 196 204 208 206 186 181 179 183 189 195 190 177 172 171 175 178 167 166 172 174 187 202 213 212 196 189 198 205 210 199 208
142 142 138 139 151 157 163 171 195 193 187 192 200 201 201 199 185 183 176 176 188 188 182 178 179 182 193 174 166 167 173 180 192 210 233 232 213 218 217 213 204 195 197
148 149 157 165 172 176 171 175 186 181 191 200 204 203 198 195 191 188 183 189 193 189 185 187 182 183 188 179 175 178 179 183 195 197 207 229 236 213 224 228 227 229 223
150 161 166 167 183 184 163 160 165 175 189 199 201 199 200 201 198 191 194 198 194 191 193 192 187 178 185 185 184 184 178 178 189 193 196 197 211 220 201 204 221 247 245
143 159 177 175 180 180 174 161 179 185 186 204 209 202 198 199 201 203 204 197 191 195 196 189 183 177 183 184 185 171 160 183 209 211 198 190 203 225 191 179 203 249 279
107 131 148 141 168 203 179 165 189 195 207 215 216 208 203 206 205 206 205 199 189 192 188 183 181 177 184 188 190 177 170 184 211 230 221 202 200 206 183 182 190 222 254
95 113 112 126 189 188 167 181 203 222 226 217 210 208 210 208 204 200 201 193 186 182 183 181 182 184 187 186 183 180 181 188 199 217 221 229 213 187 180 184 202 228 229
79 95 96 65 351 152 159 192 228 238 232 211 213 219 218 213 203 187 186 181 179 182 186 183 188 203 195 182 182 181 185 183 189 215 221 221 206 188 188 196 220 204 173
93 95 99 52 14 4 130 216 250 249 222 210 223 227 224 215 189 177 182 183 175 187 192 190 194 202 199 192 185 181 180 172 183 214 212 191 180 181 203 221 205 165 154
58 89 95 63 7 347 350 299 257 225 195 213 223 212 198 195 195 184 181 182 186 188 191 195 196 204 208 206 193 186 183 175 180 196 194 178 161 157 190 81 169 170 175
12 90 117 134 288 311 324 317 290 219 208 239 227 210 194 180 170 162 178 186 195 193 187 197 193 192 209 221 199 184 186 188 188 157 119 103 118 163 268 286 273 220 141
67 58 15 291 295 311 317 318 311 267 208 249 240 213 196 174 164 158 106 38 139 156 172 184 184 199 199 196 193 188 187 181 166 148 164 182 187 195 201 207 226 226 223
Height
1524 1526 1529 1532 1534 1536 1538 1539 1541 1542 1544 1545 1546 1547 1547 1548 1549 1549 1550 1550 1550 1551 1551 1552 1553 1553 1554 1555 1555 1556 1556 1557 1557 1557 1558 1558 1558 1558 1558 1558 1558 1558 1558
1522 1525 1527 1530 1532 1534 1536 1538 1539 1541 1542 1544 1545 1546 1547 1547 1548 1548 1548 1549 1549 1549 1550 1550 1551 1552 1552 1553 1554 1554 1554 1555 1555 1556 1556 1556 1557 1556 1556 1556 1556 1556 1556
1518 1521 1524 1526 1529 1532 1534 1536 1537 1539 1540 1542 1544 1545 1546 1546 1547 1547 1547 1547 1548 1548 1548 1549 1549 1550 1550 1551 1552 1552 1553 1553 1554 1554 1555 1555 1554 1554 1554 1554 1554 1554 1554
1515 1518 1521 1523 1526 1529 1532 1534 1536 1537 1539 1540 1541 1542 1543 1544 1544 1545 1546 1546 1546 1546 1547 1547 1548 1548 1548 1549 1549 1550 1551 1551 1552 1552 1553 1553 1553 1552 1552 1552 1552 1552 1552
1511 1514 1517 1520 1523 1527 1529 1532 1534 1535 1537 1538 1539 1541 1541 1542 1543 1544 1544 1544 1545 1545 1545 1545 1546 1546 1547 1547 1548 1548 1549 1549 1550 1550 1550 1551 1551 1550 1550 1549 1550 1550 1550
1509 1512 1515 1519 1522 1525 1527 1530 1531 1533 1534 1536 1537 1538 1539 1540 1541 1542 1542 1543 1543 1543 1543 1543 1544 1544 1545 1545 1545 1546 1546 1547 1547 1548 1548 1548 1548 1548 1548 1548 1547 1547 1547
1506 1509 1513 1516 1519 1523 1525 1528 1529 1530 1532 1534 1535 1536 1537 1538 1539 1540 1540 1541 1541 1541 1541 1542 1542 1542 1543 1543 1544 1544 1544 1545 1545 1545 1545 1545 1546 1546 1546 1546 1545 1545 1545
1503 1506 1509 1513 1517 1520 1523 1525 1527 1528 1530 1531 1533 1534 1535 1536 1537 1538 1539 1539 1539 1540 1540 1540 1540 1540 1541 1541 1541 1542 1542 1542 1542 1543 1543 1543 1543 1544 1544 1544 1544 1543 1543
1501 1504 1508 1511 1515 1519 1521 1523 1525 1526 1527 1529 1530 1532 1533 1534 1535 1536 1536 1537 1537 1538 1538 1538 1538 1538 1538 1539 1539 1539 1540 1540 1540 1541 1541 1541 1541 1541 1541 1541 1541 1542 1540
1500 1504 1506 1509 1513 1516 1519 1522 1523 1524 1525 1526 1528 1529 1530 1531 1532 1533 1534 1534 1535 1535 1535 1535 1535 1536 1536 1537 1537 1537 1538 1538 1538 1539 1539 1539 1539 1539 1539 1539 1539 1539 1539
1499 1501 1505 1509 1512 1514 1517 1519 1520 1521 1523 1524 1526 1527 1528 1528 1529 1530 1531 1532 1532 1532 1533 1533 1533 1534 1534 1535 1535 1535 1535 1536 1536 1536 1536 1537 1537 1536 1536 1536 1536 1536 1536
1497 1500 1502 1505 1509 1512 1514 1516 1517 1519 1520 1522 1523 1524 1525 1525 1526 1527 1528 1529 1529 1530 1530 1530 1531 1531 1531 1532 1533 1533 1533 1533 1534 1534 1534 1534 1534 1534 1534 1533 1533 1533 1533
1497 1500 1503 1505 1507 1509 1512 1513 1515 1516 1518 1519 1520 1521 1522 1522 1523 1523 1525 1526 1527 1527 1527 1528 1528 1529 1529 1530 1531 1531 1531 1532 1532 1532 1532 1531 1531 1531 1531 1531 1531 1531 1530
1497 1500 1502 1503 1506 1508 1510 1511 1513 1514 1515 1517 1518 1518 1518 1519 1519 1519 1520 1522 1523 1524 1524 1525 1526 1526 1527 1527 1528 1529 1530 1530 1530 1530 1530 1529 1529 1528 1528 1528 1528 1528 1527
1498 1499 1501 1503 1505 1507 1509 1510 1511 1513 1513 1514 1515 1515 1515 1516 1516 1516 1517 1519 1520 1521 1522 1522 1522 1523 1524 1524 1525 1526 1527 1527 1527 1527 1527 1527 1527 1526 1525 1525 1525 1525 1525
1497 1499 1500 1502 1503 1505 1507 1508 1509 1510 1511 1511 1511 1511 1512 1513 1513 1513 1514 1516 1517 1517 1518 1518 1519 1520 1521 1522 1523 1524 1524 1524 1525 1525 1524 1524 1524 1523 1523 1522 1522 1522 1521
1496 1498 1499 1501 1502 1504 1504 1505 1507 1508 1509 1509 1509 1508 1509 1509 1510 1511 1511 1513 1514 1514 1514 1515 1516 1517 1518 1519 1520 1521 1521 1521 1521 1521 1521 1521 1521 1520 1520 1520 1519 1519 1518
1496 1497 1498 1499 1501 1502 1502 1503 1504 1506 1506 1506 1506 1506 1506 1507 1507 1508 1508 1509 1510 1511 1511 1512 1512 1513 1514 1516 1517 1517 1517 1518 1518 1518 1518 1518 1518 1517 1517 1516 1516 1515 1515
1493 1495 1496 1497 1498 1499 1499 1500 1501 1502 1503 1503 1503 1503 1503 1504 1504 1504 1505 1506 1507 1507 1507 1508 1509 1509 1510 1511 1512 1513 1514 1514 1514 1514 1515 1515 1514 1514 1514 1513 1513 1512 1512
1492 1494 1495 1496 1496 1496 1497 1497 1497 1498 1499 1499 1499 1500 1500 1500 1500 1501 1501 1502 1503 1503 1504 1504 1504 1505 1506 1507 1508 1509 1509 1510 1510 1511 1511 1511 1511 1511 1511 1510 1509 1509 1508
1492 1492 1493 1493 1494 1494 1494 1494 1494 1494 1495 1495 1496 1496 1496 1496 1497 1497 1498 1498 1499 1500 1500 1500 1500 1501 1502 1503 1504 1505 1506 1506 1507 1507 1508 1507 1507 1507 1507 1507 1506 1506 1506
1490 1490 1490 1491 1492 1492 1491 1491 1490 1490 1491 1491 1491 1491 1491 1492 1492 1492 1493 1494 1494 1495 1496 1497 1497 1497 1498 1499 1500 1501 1502 1503 1503 1504 1504 1504 1504 1504 1504 1504 1504 1504 1503
1489 1489 1489 1489 1489 1489 1488 1487 1487 1487 1487 1487 1487 1487 1487 1487 1488 1487 1487 1488 1489 1491 1492 1493 1493 1494 1495 1495 1496 1497 1498 1499 1500 1500 1501 1501 1501 1501 1501 1501 1501 1501 1500
1488 1488 1487 1487 1486 1486 1486 1485 1484 1484 1484 1483 1483 1483 1483 1483 1483 1484 1484 1484 1485 1487 1488 1489 1490 1491 1491 1492 1493 1493 1494 1495 1496 1497 1497 1498 1498 1498 1498 1498 1497 1497 1497
1487 1486 1485 1485 1484 1484 1483 1483 1481 1480 1479 1479 1479 1478 1479 1479 1479 1479 1479 1480 1482 1483 1484 1485 1486 1486 1487 1488 1490 1490 1491 1491 1492 1493 1494 1494 1495 1495 1495 1494 1494 1494 1493
1485 1484 1484 1483 1482 1481 1480 1479 1478 1477 1475 1474 1474 1474 1475 1475 1475 1475 1476 1477 1478 1479 1480 1480 1481 1482 1483 1484 1485 1486 1487 1487 1488 1489 1489 1489 1490 1490 1490 1491 1491 1491 1490